Time,TemperatureF,DewpointF,PressureIn,WindDirection,WindDirectionDegrees,WindSpeedMPH,WindSpeedGustMPH,Humidity,HourlyPrecipIn,Conditions,Clouds,dailyrainin,SoftwareType,DateUTC
2013-03-13 00:00:00,59.2,53.0,30.02,NNE,15,0.0,0.0,80,0.00,,---,0.00,VWS V13.01,2013-03-13 04:00:00,
2013-03-13 00:02:00,59.2,52.7,30.02,NNW,335,0.0,4.0,79,0.00,,---,0.00,VWS V13.01,2013-03-13 04:02:00,
2013-03-13 00:07:00,59.4,52.9,30.02,NW,324,0.0,6.0,79,0.00,,---,0.00,VWS V13.01,2013-03-13 04:07:00,
2013-03-13 00:12:00,59.3,52.8,30.02,NW,308,0.0,6.0,79,0.00,,---,0.00,VWS V13.01,2013-03-13 04:12:00,
2013-03-13 00:17:00,59.4,52.9,30.02,NW,311,0.0,6.0,79,0.00,,---,0.00,VWS V13.01,2013-03-13 04:17:00,
2013-03-13 00:22:00,59.4,53.2,30.02,NW,306,2.0,6.0,80,0.00,,---,0.00,VWS V13.01,2013-03-13 04:22:00,
2013-03-13 00:27:00,59.4,53.2,30.02,North,355,0.0,6.0,80,0.00,,---,0.00,VWS V13.01,2013-03-13 04:27:00,
2013-03-13 00:32:00,59.4,53.2,30.02,North,5,0.0,9.0,80,0.00,,---,0.00,VWS V13.01,2013-03-13 04:32:00,
2013-03-13 00:37:00,59.4,52.9,30.02,NNW,328,0.0,10.0,79,0.00,,---,0.00,VWS V13.01,2013-03-13 04:37:00,
2013-03-13 00:42:00,59.4,52.9,30.02,WNW,295,0.0,10.0,79,0.00,,---,0.00,VWS V13.01,2013-03-13 04:42:00,
2013-03-13 00:48:00,59.4,52.9,30.02,NNW,329,0.0,10.0,79,0.00,,---,0.00,VWS V13.01,2013-03-13 04:48:00,
2013-03-13 00:53:00,59.3,52.8,30.02,NW,311,0.0,10.0,79,0.00,,---,0.00,VWS V13.01,2013-03-13 04:53:00,
2013-03-13 00:58:00,59.3,52.8,30.02,West,281,0.0,10.0,79,0.00,,---,0.00,VWS V13.01,2013-03-13 04:58:00,
2013-03-13 01:03:00,59.3,52.8,30.02,North,5,3.0,3.0,79,0.00,,---,0.00,VWS V13.01,2013-03-13 05:03:00,
2013-03-13 01:08:00,59.2,52.7,30.02,North,5,0.0,3.0,79,0.00,,---,0.00,VWS V13.01,2013-03-13 05:08:00,
2013-03-13 01:13:00,59.3,52.5,30.02,NNW,337,0.0,9.0,78,0.00,,---,0.00,VWS V13.01,2013-03-13 05:13:00,
2013-03-13 01:18:00,59.3,52.5,30.02,North,11,0.0,9.0,78,0.00,,---,0.00,VWS V13.01,2013-03-13 05:18:00,
2013-03-13 01:23:00,59.4,52.5,30.02,NE,34,2.0,9.0,78,0.00,,---,0.00,VWS V13.01,2013-03-13 05:23:00,
2013-03-13 01:28:00,59.4,52.2,30.02,NNW,344,0.0,9.0,77,0.00,,---,0.00,VWS V13.01,2013-03-13 05:28:00,
2013-03-13 01:33:00,59.4,52.2,30.02,NE,44,0.0,7.0,77,0.00,,---,0.00,VWS V13.01,2013-03-13 05:33:00,
2013-03-13 01:38:00,59.3,51.8,30.01,NNE,12,0.0,7.0,76,0.00,,---,0.00,VWS V13.01,2013-03-13 05:38:00,
2013-03-13 01:43:00,59.4,51.8,30.02,North,355,0.0,7.0,76,0.00,,---,0.00,VWS V13.01,2013-03-13 05:43:00,
2013-03-13 01:48:00,59.4,51.8,30.02,West,267,0.0,7.0,76,0.00,,---,0.00,VWS V13.01,2013-03-13 05:48:00,
2013-03-13 01:53:00,59.4,51.8,30.02,NNE,18,0.0,7.0,76,0.00,,---,0.00,VWS V13.01,2013-03-13 05:53:00,
2013-03-13 01:58:00,59.3,51.8,30.02,NE,36,0.0,7.0,76,0.00,,---,0.00,VWS V13.01,2013-03-13 05:58:00,
2013-03-13 02:03:00,59.3,51.8,30.02,North,351,0.0,0.0,76,0.00,,---,0.00,VWS V13.01,2013-03-13 06:03:00,
2013-03-13 02:09:00,59.2,51.7,30.02,North,355,0.0,0.0,76,0.00,,---,0.00,VWS V13.01,2013-03-13 06:09:00,
2013-03-13 02:14:00,59.2,51.7,30.02,NNE,17,0.0,7.0,76,0.00,,---,0.00,VWS V13.01,2013-03-13 06:14:00,
2013-03-13 02:19:00,59.2,51.3,30.03,North,11,0.0,7.0,75,0.00,,---,0.00,VWS V13.01,2013-03-13 06:19:00,
2013-03-13 02:24:00,59.2,51.3,30.02,NNW,348,0.0,7.0,75,0.00,,---,0.00,VWS V13.01,2013-03-13 06:24:00,
2013-03-13 02:29:00,59.1,51.2,30.02,North,355,0.0,7.0,75,0.00,,---,0.00,VWS V13.01,2013-03-13 06:29:00,
2013-03-13 02:34:00,59.3,51.0,30.02,North,5,0.0,4.0,74,0.00,,---,0.00,VWS V13.01,2013-03-13 06:34:00,
2013-03-13 02:39:00,59.3,51.0,30.02,North,5,0.0,5.0,74,0.00,,---,0.00,VWS V13.01,2013-03-13 06:39:00,
2013-03-13 02:44:00,59.2,50.9,30.02,North,5,0.0,5.0,74,0.00,,---,0.00,VWS V13.01,2013-03-13 06:44:00,
2013-03-13 02:49:00,59.2,50.9,30.02,NW,317,1.0,6.0,74,0.00,,---,0.00,VWS V13.01,2013-03-13 06:49:00,
2013-03-13 02:54:00,59.3,50.7,30.02,NNW,335,0.0,10.0,73,0.00,,---,0.00,VWS V13.01,2013-03-13 06:54:00,
2013-03-13 02:59:00,59.4,50.0,30.01,NNW,338,4.0,4.0,71,0.00,,---,0.00,VWS V13.01,2013-03-13 06:59:00,
2013-03-13 03:04:00,59.5,49.7,30.01,NE,35,0.0,14.0,70,0.00,,---,0.00,VWS V13.01,2013-03-13 07:04:00,
2013-03-13 03:09:00,59.5,49.7,30.02,NNW,344,4.0,14.0,70,0.00,,---,0.00,VWS V13.01,2013-03-13 07:09:00,
2013-03-13 03:14:00,59.5,49.7,30.01,North,355,0.0,14.0,70,0.00,,---,0.00,VWS V13.01,2013-03-13 07:14:00,
2013-03-13 03:20:00,59.5,50.1,30.01,North,9,0.0,14.0,71,0.00,,---,0.00,VWS V13.01,2013-03-13 07:20:00,
2013-03-13 03:25:00,59.4,50.4,30.01,NNW,344,0.0,14.0,72,0.00,,---,0.00,VWS V13.01,2013-03-13 07:25:00,
2013-03-13 03:30:00,59.4,50.4,30.01,North,355,0.0,6.0,72,0.00,,---,0.00,VWS V13.01,2013-03-13 07:30:00,
2013-03-13 03:35:00,59.5,50.5,30.01,NNW,333,0.0,6.0,72,0.00,,---,0.00,VWS V13.01,2013-03-13 07:35:00,
2013-03-13 03:40:00,59.5,50.5,30.01,North,11,0.0,6.0,72,0.00,,---,0.00,VWS V13.01,2013-03-13 07:40:00,
2013-03-13 03:45:00,59.5,50.8,30.02,NW,317,0.0,6.0,73,0.00,,---,0.00,VWS V13.01,2013-03-13 07:45:00,
2013-03-13 03:50:00,59.5,50.8,30.02,North,355,0.0,6.0,73,0.00,,---,0.00,VWS V13.01,2013-03-13 07:50:00,
2013-03-13 03:55:00,59.4,51.1,30.02,North,355,0.0,9.0,74,0.00,,---,0.00,VWS V13.01,2013-03-13 07:55:00,
2013-03-13 04:00:00,59.5,50.8,30.01,North,355,2.0,9.0,73,0.00,,---,0.00,VWS V13.01,2013-03-13 08:00:00,
2013-03-13 04:08:00,59.5,50.5,30.01,North,360,0.0,9.0,72,0.00,,---,0.00,VWS V13.01,2013-03-13 08:08:00,
2013-03-13 04:13:00,59.5,50.5,30.02,North,355,0.0,9.0,72,0.00,,---,0.00,VWS V13.01,2013-03-13 08:13:00,
2013-03-13 04:18:00,59.4,50.4,30.02,NNW,340,0.0,9.0,72,0.00,,---,0.00,VWS V13.01,2013-03-13 08:18:00,
2013-03-13 04:23:00,59.4,50.0,30.02,North,350,0.0,9.0,71,0.00,,---,0.00,VWS V13.01,2013-03-13 08:23:00,
2013-03-13 04:28:00,59.3,49.9,30.02,North,355,2.0,9.0,71,0.00,,---,0.00,VWS V13.01,2013-03-13 08:28:00,
2013-03-13 04:33:00,59.4,50.0,30.02,North,360,0.0,4.0,71,0.00,,---,0.00,VWS V13.01,2013-03-13 08:33:00,
2013-03-13 04:38:00,59.3,49.9,30.02,NNE,12,0.0,10.0,71,0.00,,---,0.00,VWS V13.01,2013-03-13 08:38:00,
2013-03-13 04:43:00,59.4,50.4,30.02,NE,44,1.0,10.0,72,0.00,,---,0.00,VWS V13.01,2013-03-13 08:43:00,
2013-03-13 04:48:00,59.3,50.3,30.02,North,360,0.0,10.0,72,0.00,,---,0.00,VWS V13.01,2013-03-13 08:48:00,
2013-03-13 04:53:00,59.2,49.8,30.03,North,355,0.0,10.0,71,0.00,,---,0.00,VWS V13.01,2013-03-13 08:53:00,
2013-03-13 04:59:00,59.4,50.0,30.03,NNE,30,1.0,10.0,71,0.00,,---,0.00,VWS V13.01,2013-03-13 08:59:00,
2013-03-13 05:04:00,59.4,50.0,30.03,North,10,0.0,6.0,71,0.00,,---,0.00,VWS V13.01,2013-03-13 09:04:00,
2013-03-13 05:09:00,59.4,50.0,30.03,NNW,332,0.0,6.0,71,0.00,,---,0.00,VWS V13.01,2013-03-13 09:09:00,
2013-03-13 05:14:00,59.4,50.0,30.03,North,5,0.0,10.0,71,0.00,,---,0.00,VWS V13.01,2013-03-13 09:14:00,
2013-03-13 05:19:00,59.4,50.0,30.03,North,355,4.0,10.0,71,0.00,,---,0.00,VWS V13.01,2013-03-13 09:19:00,
2013-03-13 05:24:00,59.4,49.6,30.03,North,5,0.0,10.0,70,0.00,,---,0.00,VWS V13.01,2013-03-13 09:24:00,
2013-03-13 05:29:00,59.4,49.6,30.03,North,355,4.0,11.0,70,0.00,,---,0.00,VWS V13.01,2013-03-13 09:29:00,
2013-03-13 05:34:00,59.4,50.0,30.04,North,5,0.0,7.0,71,0.00,,---,0.00,VWS V13.01,2013-03-13 09:34:00,
2013-03-13 05:39:00,59.3,49.9,30.04,NNW,339,5.0,7.0,71,0.00,,---,0.00,VWS V13.01,2013-03-13 09:39:00,
2013-03-13 05:44:00,59.2,50.2,30.04,NNW,344,0.0,7.0,72,0.00,,---,0.00,VWS V13.01,2013-03-13 09:44:00,
2013-03-13 05:50:00,59.0,50.4,30.04,North,355,0.0,7.0,73,0.00,,---,0.00,VWS V13.01,2013-03-13 09:50:00,
2013-03-13 05:55:00,58.9,50.6,30.04,NNW,347,0.0,7.0,74,0.00,,---,0.00,VWS V13.01,2013-03-13 09:55:00,
2013-03-13 06:00:00,58.7,50.5,30.04,NNW,348,0.0,0.0,74,0.00,,---,0.00,VWS V13.01,2013-03-13 10:00:00,
2013-03-13 06:05:00,58.7,50.1,30.05,NNW,340,0.0,11.0,73,0.00,,---,0.00,VWS V13.01,2013-03-13 10:05:00,
2013-03-13 06:10:00,58.7,50.1,30.05,North,10,0.0,11.0,73,0.00,,---,0.00,VWS V13.01,2013-03-13 10:10:00,
2013-03-13 06:15:00,58.6,50.0,30.05,North,5,0.0,11.0,73,0.00,,---,0.00,VWS V13.01,2013-03-13 10:15:00,
2013-03-13 06:20:00,58.7,49.7,30.05,North,11,3.0,11.0,72,0.00,,---,0.00,VWS V13.01,2013-03-13 10:20:00,
2013-03-13 06:25:00,58.8,49.0,30.06,NNE,17,3.0,11.0,70,0.00,,---,0.00,VWS V13.01,2013-03-13 10:25:00,
2013-03-13 06:30:00,58.9,48.4,30.06,NW,321,1.0,3.0,68,0.00,,---,0.00,VWS V13.01,2013-03-13 10:30:00,
2013-03-13 06:35:00,59.0,48.1,30.06,NE,44,0.0,11.0,67,0.00,,---,0.00,VWS V13.01,2013-03-13 10:35:00,
2013-03-13 06:40:00,58.9,48.4,30.06,NNE,13,0.0,11.0,68,0.00,,---,0.00,VWS V13.01,2013-03-13 10:40:00,
2013-03-13 06:45:00,58.8,48.3,30.06,NNW,345,4.0,11.0,68,0.00,,---,0.00,VWS V13.01,2013-03-13 10:45:00,
2013-03-13 06:50:00,58.6,48.5,30.07,North,5,1.0,11.0,69,0.00,,---,0.00,VWS V13.01,2013-03-13 10:50:00,
2013-03-13 06:55:00,58.6,48.5,30.07,North,355,0.0,11.0,69,0.00,,---,0.00,VWS V13.01,2013-03-13 10:55:00,
2013-03-13 07:00:00,58.5,48.4,30.07,NE,42,0.0,1.0,69,0.00,,---,0.00,VWS V13.01,2013-03-13 11:00:00,
2013-03-13 07:05:00,58.3,48.6,30.08,North,5,2.0,3.0,70,0.00,,---,0.00,VWS V13.01,2013-03-13 11:05:00,
2013-03-13 07:10:00,58.3,48.2,30.08,North,355,0.0,9.0,69,0.00,,---,0.00,VWS V13.01,2013-03-13 11:10:00,
2013-03-13 07:15:00,58.2,48.1,30.08,North,11,4.0,9.0,69,0.00,,---,0.00,VWS V13.01,2013-03-13 11:15:00,
2013-03-13 07:21:00,58.2,47.7,30.08,NNE,18,1.0,9.0,68,0.00,,---,0.00,VWS V13.01,2013-03-13 11:21:00,
2013-03-13 07:26:00,58.3,47.4,30.08,North,5,0.0,9.0,67,0.00,,---,0.00,VWS V13.01,2013-03-13 11:26:00,
2013-03-13 07:31:00,58.3,47.0,30.09,North,11,0.0,6.0,66,0.00,,---,0.00,VWS V13.01,2013-03-13 11:31:00,
2013-03-13 07:36:00,58.4,47.1,30.09,NNW,330,0.0,15.0,66,0.00,,---,0.00,VWS V13.01,2013-03-13 11:36:00,
2013-03-13 07:41:00,58.3,47.4,30.09,North,349,0.0,15.0,67,0.00,,---,0.00,VWS V13.01,2013-03-13 11:41:00,
2013-03-13 07:47:00,58.1,47.6,30.09,NNW,348,0.0,15.0,68,0.00,,---,0.00,VWS V13.01,2013-03-13 11:47:00,
2013-03-13 07:52:00,58.0,47.5,30.09,North,5,0.0,15.0,68,0.00,,---,0.00,VWS V13.01,2013-03-13 11:52:00,
2013-03-13 07:57:00,58.0,47.5,30.09,NNW,347,1.0,15.0,68,0.00,,---,0.00,VWS V13.01,2013-03-13 11:57:00,
2013-03-13 08:02:00,58.0,47.1,30.10,North,5,10.0,12.0,67,0.00,,---,0.00,VWS V13.01,2013-03-13 12:02:00,
2013-03-13 08:07:00,58.2,46.9,30.09,NNE,22,14.0,14.0,66,0.00,,---,0.00,VWS V13.01,2013-03-13 12:07:00,
2013-03-13 08:12:00,58.3,47.0,30.09,NNE,12,0.0,14.0,66,0.00,,---,0.00,VWS V13.01,2013-03-13 12:12:00,
2013-03-13 08:17:00,58.3,47.4,30.10,NNE,32,2.0,14.0,67,0.00,,---,0.00,VWS V13.01,2013-03-13 12:17:00,
2013-03-13 08:22:00,58.4,47.9,30.10,North,11,0.0,14.0,68,0.00,,---,0.00,VWS V13.01,2013-03-13 12:22:00,
2013-03-13 08:27:00,58.4,47.9,30.10,North,349,3.0,14.0,68,0.00,,---,0.00,VWS V13.01,2013-03-13 12:27:00,
2013-03-13 08:32:00,58.6,48.1,30.10,NNE,24,0.0,2.0,68,0.00,,---,0.00,VWS V13.01,2013-03-13 12:32:00,
2013-03-13 08:37:00,58.7,48.2,30.10,NNW,339,0.0,11.0,68,0.00,,---,0.00,VWS V13.01,2013-03-13 12:37:00,
2013-03-13 08:43:00,58.9,48.0,30.11,West,267,5.0,11.0,67,0.00,,---,0.00,VWS V13.01,2013-03-13 12:43:00,
2013-03-13 08:48:00,59.2,48.7,30.11,North,355,0.0,12.0,68,0.00,,---,0.00,VWS V13.01,2013-03-13 12:48:00,
2013-03-13 08:53:00,59.3,48.4,30.11,NNW,346,6.0,15.0,67,0.00,,---,0.00,VWS V13.01,2013-03-13 12:53:00,
2013-03-13 08:58:00,59.4,48.5,30.11,NNW,339,0.0,15.0,67,0.00,,---,0.00,VWS V13.01,2013-03-13 12:58:00,
2013-03-13 09:03:00,59.6,48.2,30.11,North,5,0.0,11.0,66,0.00,,---,0.00,VWS V13.01,2013-03-13 13:03:00,
2013-03-13 09:08:00,59.7,48.3,30.12,NNW,344,0.0,12.0,66,0.00,,---,0.00,VWS V13.01,2013-03-13 13:08:00,
2013-03-13 09:13:00,59.9,47.7,30.12,North,360,3.0,12.0,64,0.00,,---,0.00,VWS V13.01,2013-03-13 13:13:00,
2013-03-13 09:18:00,59.9,47.7,30.12,NNE,27,9.0,13.0,64,0.00,,---,0.00,VWS V13.01,2013-03-13 13:18:00,
2013-03-13 09:23:00,59.9,47.3,30.12,North,360,5.0,17.0,63,0.00,,---,0.00,VWS V13.01,2013-03-13 13:23:00,
2013-03-13 09:28:00,60.2,46.7,30.13,North,355,5.0,17.0,61,0.00,,---,0.00,VWS V13.01,2013-03-13 13:28:00,
2013-03-13 09:33:00,60.4,46.5,30.13,North,355,0.0,14.0,60,0.00,,---,0.00,VWS V13.01,2013-03-13 13:33:00,
2013-03-13 09:38:00,60.7,46.8,30.13,North,355,10.0,14.0,60,0.00,,---,0.00,VWS V13.01,2013-03-13 13:38:00,
2013-03-13 09:43:00,61.0,47.5,30.13,North,5,0.0,14.0,61,0.00,,---,0.00,VWS V13.01,2013-03-13 13:43:00,
2013-03-13 09:48:00,61.1,46.7,30.13,North,360,1.0,14.0,59,0.00,,---,0.00,VWS V13.01,2013-03-13 13:48:00,
2013-03-13 09:54:00,61.2,45.9,30.13,NNW,337,6.0,14.0,57,0.00,,---,0.00,VWS V13.01,2013-03-13 13:54:00,
2013-03-13 09:59:00,61.2,44.9,30.13,NW,314,1.0,16.0,55,0.00,,---,0.00,VWS V13.01,2013-03-13 13:59:00,
2013-03-13 10:04:00,61.3,44.5,30.14,NNE,19,3.0,11.0,54,0.00,,---,0.00,VWS V13.01,2013-03-13 14:04:00,
2013-03-13 10:09:00,61.6,44.8,30.14,NNW,344,0.0,11.0,54,0.00,,---,0.00,VWS V13.01,2013-03-13 14:09:00,
2013-03-13 10:14:00,61.9,45.1,30.14,NNE,22,4.0,13.0,54,0.00,,---,0.00,VWS V13.01,2013-03-13 14:14:00,
2013-03-13 10:19:00,62.1,45.8,30.14,North,360,0.0,13.0,55,0.00,,---,0.00,VWS V13.01,2013-03-13 14:19:00,
2013-03-13 10:24:00,62.3,46.0,30.14,NW,323,0.0,13.0,55,0.00,,---,0.00,VWS V13.01,2013-03-13 14:24:00,
2013-03-13 10:29:00,62.8,46.9,30.14,North,355,0.0,13.0,56,0.00,,---,0.00,VWS V13.01,2013-03-13 14:29:00,
2013-03-13 10:34:00,63.5,47.5,30.15,North,5,10.0,11.0,56,0.00,,---,0.00,VWS V13.01,2013-03-13 14:34:00,
2013-03-13 10:39:00,63.5,44.0,30.15,NW,326,0.0,16.0,49,0.00,,---,0.00,VWS V13.01,2013-03-13 14:39:00,
2013-03-13 10:44:00,63.4,42.8,30.15,NNE,16,9.0,16.0,47,0.00,,---,0.00,VWS V13.01,2013-03-13 14:44:00,
2013-03-13 10:49:00,63.2,43.2,30.15,NNW,340,0.0,16.0,48,0.00,,---,0.00,VWS V13.01,2013-03-13 14:49:00,
2013-03-13 10:54:00,63.7,44.7,30.15,NNW,346,0.0,16.0,50,0.00,,---,0.00,VWS V13.01,2013-03-13 14:54:00,
2013-03-13 10:59:00,64.3,44.8,30.15,North,360,10.0,11.0,49,0.00,,---,0.00,VWS V13.01,2013-03-13 14:59:00,
2013-03-13 11:05:00,64.2,43.6,30.15,North,355,7.0,12.0,47,0.00,,---,0.00,VWS V13.01,2013-03-13 15:05:00,
2013-03-13 11:10:00,64.3,44.2,30.15,North,350,0.0,12.0,48,0.00,,---,0.00,VWS V13.01,2013-03-13 15:10:00,
2013-03-13 11:15:00,64.5,44.4,30.15,North,355,1.0,12.0,48,0.00,,---,0.00,VWS V13.01,2013-03-13 15:15:00,
2013-03-13 11:20:00,64.7,44.0,30.15,North,349,0.0,14.0,47,0.00,,---,0.00,VWS V13.01,2013-03-13 15:20:00,
2013-03-13 11:25:00,65.0,44.8,30.15,NE,40,0.0,14.0,48,0.00,,---,0.00,VWS V13.01,2013-03-13 15:25:00,
2013-03-13 11:30:00,65.5,44.8,30.15,NNW,334,4.0,4.0,47,0.00,,---,0.00,VWS V13.01,2013-03-13 15:30:00,
2013-03-13 11:35:00,65.5,44.8,30.15,NW,315,0.0,13.0,47,0.00,,---,0.00,VWS V13.01,2013-03-13 15:35:00,
2013-03-13 11:40:00,65.5,43.6,30.15,NNW,336,5.0,13.0,45,0.00,,---,0.00,VWS V13.01,2013-03-13 15:40:00,
2013-03-13 11:45:00,65.9,44.0,30.15,North,5,3.0,14.0,45,0.00,,---,0.00,VWS V13.01,2013-03-13 15:45:00,
2013-03-13 11:50:00,66.2,44.8,30.15,NNE,26,6.0,14.0,46,0.00,,---,0.00,VWS V13.01,2013-03-13 15:50:00,
2013-03-13 11:55:00,66.2,44.2,30.15,North,355,5.0,16.0,45,0.00,,---,0.00,VWS V13.01,2013-03-13 15:55:00,
2013-03-13 12:00:00,66.0,42.3,30.15,NE,52,4.0,15.0,42,0.00,,---,0.00,VWS V13.01,2013-03-13 16:00:00,
2013-03-13 12:05:00,65.8,43.3,30.16,NNW,331,2.0,15.0,44,0.00,,---,0.00,VWS V13.01,2013-03-13 16:05:00,
2013-03-13 12:10:00,66.0,41.7,30.16,North,355,2.0,16.0,41,0.00,,---,0.00,VWS V13.01,2013-03-13 16:10:00,
2013-03-13 12:15:00,66.2,43.7,30.16,NNW,336,3.0,16.0,44,0.00,,---,0.00,VWS V13.01,2013-03-13 16:15:00,
2013-03-13 12:20:00,66.3,42.5,30.16,NW,313,5.0,16.0,42,0.00,,---,0.00,VWS V13.01,2013-03-13 16:20:00,
2013-03-13 12:25:00,65.9,40.9,30.16,NNW,341,4.0,16.0,40,0.00,,---,0.00,VWS V13.01,2013-03-13 16:25:00,
2013-03-13 12:31:00,66.1,43.0,30.16,NNE,18,6.0,13.0,43,0.00,,---,0.00,VWS V13.01,2013-03-13 16:31:00,
2013-03-13 12:36:00,66.4,42.0,30.16,NW,320,6.0,15.0,41,0.00,,---,0.00,VWS V13.01,2013-03-13 16:36:00,
2013-03-13 12:41:00,65.9,42.8,30.16,North,351,5.0,17.0,43,0.00,,---,0.00,VWS V13.01,2013-03-13 16:41:00,
2013-03-13 12:46:00,66.3,43.2,30.16,North,11,13.0,17.0,43,0.00,,---,0.00,VWS V13.01,2013-03-13 16:46:00,
2013-03-13 12:51:00,66.7,45.8,30.16,NNW,333,4.0,17.0,47,0.00,,---,0.00,VWS V13.01,2013-03-13 16:51:00,
2013-03-13 12:56:00,66.5,40.8,30.16,NNW,333,6.0,17.0,39,0.00,,---,0.00,VWS V13.01,2013-03-13 16:56:00,
2013-03-13 13:02:00,66.7,44.1,30.16,NW,313,5.0,7.0,44,0.00,,---,0.00,VWS V13.01,2013-03-13 17:02:00,
2013-03-13 13:07:00,65.9,42.8,30.16,NNE,13,4.0,12.0,43,0.00,,---,0.00,VWS V13.01,2013-03-13 17:07:00,
2013-03-13 13:12:00,66.0,42.3,30.16,NW,313,6.0,14.0,42,0.00,,---,0.00,VWS V13.01,2013-03-13 17:12:00,
2013-03-13 13:17:00,65.9,43.4,30.16,North,360,3.0,16.0,44,0.00,,---,0.00,VWS V13.01,2013-03-13 17:17:00,
2013-03-13 13:22:00,66.5,45.1,30.16,NW,321,5.0,16.0,46,0.00,,---,0.00,VWS V13.01,2013-03-13 17:22:00,
2013-03-13 13:27:00,66.1,43.6,30.16,WNW,289,6.0,16.0,44,0.00,,---,0.00,VWS V13.01,2013-03-13 17:27:00,
2013-03-13 13:32:00,65.7,44.4,30.16,NW,319,15.0,15.0,46,0.00,,---,0.00,VWS V13.01,2013-03-13 17:32:00,
2013-03-13 13:37:00,65.9,44.0,30.15,WNW,295,4.0,15.0,45,0.00,,---,0.00,VWS V13.01,2013-03-13 17:37:00,
2013-03-13 13:42:00,66.3,44.3,30.15,North,360,0.0,15.0,45,0.00,,---,0.00,VWS V13.01,2013-03-13 17:42:00,
2013-03-13 13:47:00,66.3,43.2,30.15,North,11,10.0,15.0,43,0.00,,---,0.00,VWS V13.01,2013-03-13 17:47:00,
2013-03-13 13:52:00,66.3,43.2,30.15,NW,318,3.0,15.0,43,0.00,,---,0.00,VWS V13.01,2013-03-13 17:52:00,
2013-03-13 13:57:00,66.5,44.5,30.14,NW,309,7.0,15.0,45,0.00,,---,0.00,VWS V13.01,2013-03-13 17:57:00,
2013-03-13 14:02:00,66.3,43.2,30.14,NW,314,6.0,11.0,43,0.00,,---,0.00,VWS V13.01,2013-03-13 18:02:00,
2013-03-13 14:08:00,66.4,43.8,30.13,NNW,332,9.0,13.0,44,0.00,,---,0.00,VWS V13.01,2013-03-13 18:08:00,
2013-03-13 14:13:00,66.5,42.7,30.13,NNW,344,4.0,14.0,42,0.00,,---,0.00,VWS V13.01,2013-03-13 18:13:00,
2013-03-13 14:18:00,66.7,45.8,30.13,WNW,302,5.0,14.0,47,0.00,,---,0.00,VWS V13.01,2013-03-13 18:18:00,
2013-03-13 14:23:00,67.0,45.0,30.13,NNW,338,5.0,14.0,45,0.00,,---,0.00,VWS V13.01,2013-03-13 18:23:00,
2013-03-13 14:28:00,67.2,46.3,30.12,North,5,2.0,14.0,47,0.00,,---,0.00,VWS V13.01,2013-03-13 18:28:00,
2013-03-13 14:33:00,67.3,45.8,30.12,WSW,247,3.0,7.0,46,0.00,,---,0.00,VWS V13.01,2013-03-13 18:33:00,
2013-03-13 14:38:00,67.2,46.9,30.12,NNW,344,2.0,12.0,48,0.00,,---,0.00,VWS V13.01,2013-03-13 18:38:00,
2013-03-13 14:44:00,66.6,46.9,30.12,NNW,340,5.0,12.0,49,0.00,,---,0.00,VWS V13.01,2013-03-13 18:44:00,
2013-03-13 14:49:00,66.6,45.8,30.12,NNW,336,6.0,12.0,47,0.00,,---,0.00,VWS V13.01,2013-03-13 18:49:00,
2013-03-13 14:54:00,66.4,45.6,30.12,NNW,347,2.0,14.0,47,0.00,,---,0.00,VWS V13.01,2013-03-13 18:54:00,
2013-03-13 14:59:00,66.7,46.4,30.12,NNW,332,8.0,14.0,48,0.00,,---,0.00,VWS V13.01,2013-03-13 18:59:00,
2013-03-13 15:04:00,66.9,47.7,30.12,WNW,288,11.0,11.0,50,0.00,,---,0.00,VWS V13.01,2013-03-13 19:04:00,
2013-03-13 15:09:00,67.0,47.2,30.11,North,360,1.0,11.0,49,0.00,,---,0.00,VWS V13.01,2013-03-13 19:09:00,
2013-03-13 15:14:00,67.7,47.9,30.11,NW,321,5.0,11.0,49,0.00,,---,0.00,VWS V13.01,2013-03-13 19:14:00,
2013-03-13 15:19:00,67.7,46.8,30.11,NW,311,4.0,16.0,47,0.00,,---,0.00,VWS V13.01,2013-03-13 19:19:00,
2013-03-13 15:24:00,67.2,46.9,30.11,WNW,287,6.0,16.0,48,0.00,,---,0.00,VWS V13.01,2013-03-13 19:24:00,
2013-03-13 15:29:00,66.6,46.9,30.11,NW,319,0.0,16.0,49,0.00,,---,0.00,VWS V13.01,2013-03-13 19:29:00,
2013-03-13 15:34:00,67.1,46.8,30.11,NNE,24,3.0,11.0,48,0.00,,---,0.00,VWS V13.01,2013-03-13 19:34:00,
2013-03-13 15:39:00,67.1,47.9,30.11,NW,321,2.0,14.0,50,0.00,,---,0.00,VWS V13.01,2013-03-13 19:39:00,
2013-03-13 15:44:00,66.6,46.9,30.11,North,355,5.0,15.0,49,0.00,,---,0.00,VWS V13.01,2013-03-13 19:44:00,
2013-03-13 15:49:00,66.3,47.7,30.10,WNW,284,3.0,15.0,51,0.00,,---,0.00,VWS V13.01,2013-03-13 19:49:00,
2013-03-13 15:55:00,66.1,47.5,30.10,NE,34,6.0,15.0,51,0.00,,---,0.00,VWS V13.01,2013-03-13 19:55:00,
2013-03-13 16:00:00,65.9,47.3,30.10,NW,324,2.0,6.0,51,0.00,,---,0.00,VWS V13.01,2013-03-13 20:00:00,
2013-03-13 16:05:00,65.9,46.8,30.10,NW,308,2.0,10.0,50,0.00,,---,0.00,VWS V13.01,2013-03-13 20:05:00,
2013-03-13 16:10:00,66.0,46.8,30.10,NW,322,5.0,12.0,50,0.00,,---,0.00,VWS V13.01,2013-03-13 20:10:00,
2013-03-13 16:15:00,65.3,47.8,30.10,North,355,7.0,12.0,53,0.00,,---,0.00,VWS V13.01,2013-03-13 20:15:00,
2013-03-13 16:20:00,65.0,47.5,30.10,North,5,4.0,16.0,53,0.00,,---,0.00,VWS V13.01,2013-03-13 20:20:00,
2013-03-13 16:25:00,65.2,47.7,30.10,NNW,339,4.0,16.0,53,0.00,,---,0.00,VWS V13.01,2013-03-13 20:25:00,
2013-03-13 16:30:00,65.9,49.3,30.10,NNW,328,0.0,3.0,55,0.00,,---,0.00,VWS V13.01,2013-03-13 20:30:00,
2013-03-13 16:35:00,66.1,48.0,30.10,NW,306,0.0,12.0,52,0.00,,---,0.00,VWS V13.01,2013-03-13 20:35:00,
2013-03-13 16:40:00,66.2,48.1,30.10,NW,317,3.0,12.0,52,0.00,,---,0.00,VWS V13.01,2013-03-13 20:40:00,
2013-03-13 16:45:00,66.3,48.2,30.09,NW,308,10.0,12.0,52,0.00,,---,0.00,VWS V13.01,2013-03-13 20:45:00,
2013-03-13 16:50:00,66.0,47.4,30.09,NW,320,4.0,12.0,51,0.00,,---,0.00,VWS V13.01,2013-03-13 20:50:00,
2013-03-13 16:55:00,65.6,47.5,30.09,WNW,286,2.0,12.0,52,0.00,,---,0.00,VWS V13.01,2013-03-13 20:55:00,
2013-03-13 17:00:00,65.3,48.2,30.09,North,355,2.0,5.0,54,0.00,,---,0.00,VWS V13.01,2013-03-13 21:00:00,
2013-03-13 17:05:00,65.6,46.0,30.09,NW,318,5.0,10.0,49,0.00,,---,0.00,VWS V13.01,2013-03-13 21:05:00,
2013-03-13 17:10:00,65.4,47.3,30.09,NW,325,9.0,10.0,52,0.00,,---,0.00,VWS V13.01,2013-03-13 21:10:00,
2013-03-13 17:16:00,65.7,47.1,30.09,WNW,301,5.0,10.0,51,0.00,,---,0.00,VWS V13.01,2013-03-13 21:16:00,
2013-03-13 17:21:00,65.8,47.2,30.09,NNW,348,0.0,12.0,51,0.00,,---,0.00,VWS V13.01,2013-03-13 21:21:00,
2013-03-13 17:26:00,66.2,46.0,30.09,North,9,5.0,12.0,48,0.00,,---,0.00,VWS V13.01,2013-03-13 21:26:00,
2013-03-13 17:31:00,66.1,46.4,30.09,NW,306,4.0,9.0,49,0.00,,---,0.00,VWS V13.01,2013-03-13 21:31:00,
2013-03-13 17:36:00,65.9,46.2,30.09,NNW,331,4.0,10.0,49,0.00,,---,0.00,VWS V13.01,2013-03-13 21:36:00,
2013-03-13 17:42:00,65.7,47.1,30.08,West,261,3.0,12.0,51,0.00,,---,0.00,VWS V13.01,2013-03-13 21:42:00,
2013-03-13 17:47:00,65.2,48.2,30.08,NNW,338,3.0,12.0,54,0.00,,---,0.00,VWS V13.01,2013-03-13 21:47:00,
2013-03-13 17:52:00,64.3,47.3,30.08,WNW,289,1.0,12.0,54,0.00,,---,0.00,VWS V13.01,2013-03-13 21:52:00,
2013-03-13 17:57:00,63.6,47.2,30.08,North,355,7.0,12.0,55,0.00,,---,0.00,VWS V13.01,2013-03-13 21:57:00,
2013-03-13 18:02:00,63.6,47.6,30.08,NNW,331,6.0,10.0,56,0.00,,---,0.00,VWS V13.01,2013-03-13 22:02:00,
2013-03-13 18:07:00,63.8,48.3,30.08,WNW,300,3.0,10.0,57,0.00,,---,0.00,VWS V13.01,2013-03-13 22:07:00,
2013-03-13 18:12:00,63.8,47.8,30.08,NNW,342,5.0,12.0,56,0.00,,---,0.00,VWS V13.01,2013-03-13 22:12:00,
2013-03-13 18:17:00,63.4,46.5,30.08,NW,308,0.0,12.0,54,0.00,,---,0.00,VWS V13.01,2013-03-13 22:17:00,
2013-03-13 18:22:00,63.5,46.1,30.08,NNE,25,5.0,12.0,53,0.00,,---,0.00,VWS V13.01,2013-03-13 22:22:00,
2013-03-13 18:27:00,63.4,46.0,30.09,North,350,2.0,12.0,53,0.00,,---,0.00,VWS V13.01,2013-03-13 22:27:00,
2013-03-13 18:32:00,63.2,45.8,30.09,North,11,4.0,8.0,53,0.00,,---,0.00,VWS V13.01,2013-03-13 22:32:00,
2013-03-13 18:37:00,63.1,45.7,30.09,NNW,346,5.0,11.0,53,0.00,,---,0.00,VWS V13.01,2013-03-13 22:37:00,
2013-03-13 18:42:00,62.9,45.0,30.09,NNW,343,3.0,11.0,52,0.00,,---,0.00,VWS V13.01,2013-03-13 22:42:00,
2013-03-13 18:47:00,62.8,44.9,30.09,NW,306,0.0,11.0,52,0.00,,---,0.00,VWS V13.01,2013-03-13 22:47:00,
2013-03-13 18:52:00,62.7,43.8,30.09,North,11,7.0,12.0,50,0.00,,---,0.00,VWS V13.01,2013-03-13 22:52:00,
2013-03-13 18:58:00,62.5,44.7,30.09,North,360,3.0,12.0,52,0.00,,---,0.00,VWS V13.01,2013-03-13 22:58:00,
2013-03-13 19:03:00,62.3,45.0,30.09,NNW,344,0.0,3.0,53,0.00,,---,0.00,VWS V13.01,2013-03-13 23:03:00,
2013-03-13 19:08:00,62.1,44.8,30.09,WNW,290,0.0,10.0,53,0.00,,---,0.00,VWS V13.01,2013-03-13 23:08:00,
2013-03-13 19:13:00,61.8,44.5,30.09,NNW,329,0.0,14.0,53,0.00,,---,0.00,VWS V13.01,2013-03-13 23:13:00,
2013-03-13 19:18:00,61.5,44.2,30.09,WNW,290,6.0,14.0,53,0.00,,---,0.00,VWS V13.01,2013-03-13 23:18:00,
2013-03-13 19:23:00,61.3,44.0,30.09,WNW,300,2.0,14.0,53,0.00,,---,0.00,VWS V13.01,2013-03-13 23:23:00,
2013-03-13 19:28:00,61.1,43.9,30.09,NNW,340,0.0,14.0,53,0.00,,---,0.00,VWS V13.01,2013-03-13 23:28:00,
2013-03-13 19:33:00,61.0,44.7,30.10,NW,316,1.0,5.0,55,0.00,,---,0.00,VWS V13.01,2013-03-13 23:33:00,
2013-03-13 19:38:00,60.8,45.0,30.10,North,5,0.0,5.0,56,0.00,,---,0.00,VWS V13.01,2013-03-13 23:38:00,
2013-03-13 19:43:00,60.5,45.7,30.10,NNW,333,0.0,6.0,58,0.00,,---,0.00,VWS V13.01,2013-03-13 23:43:00,
2013-03-13 19:48:00,60.4,46.0,30.10,North,5,4.0,6.0,59,0.00,,---,0.00,VWS V13.01,2013-03-13 23:48:00,
2013-03-13 19:53:00,60.3,46.4,30.10,NNW,335,0.0,6.0,60,0.00,,---,0.00,VWS V13.01,2013-03-13 23:53:00,
2013-03-13 19:58:00,60.2,46.3,30.10,WSW,247,0.0,6.0,60,0.00,,---,0.00,VWS V13.01,2013-03-13 23:58:00,
2013-03-13 20:04:00,60.1,46.2,30.10,NW,324,0.0,6.0,60,0.00,,---,0.00,VWS V13.01,2013-03-14 00:04:00,
2013-03-13 20:09:00,60.0,46.1,30.11,WNW,292,0.0,6.0,60,0.00,,---,0.00,VWS V13.01,2013-03-14 00:09:00,
2013-03-13 20:14:00,59.9,46.4,30.11,North,351,0.0,6.0,61,0.00,,---,0.00,VWS V13.01,2013-03-14 00:14:00,
2013-03-13 20:19:00,59.9,46.4,30.11,North,360,0.0,6.0,61,0.00,,---,0.00,VWS V13.01,2013-03-14 00:19:00,
2013-03-13 20:24:00,59.9,46.4,30.11,NNE,24,5.0,6.0,61,0.00,,---,0.00,VWS V13.01,2013-03-14 00:24:00,
2013-03-13 20:29:00,59.9,46.4,30.11,NNW,330,0.0,8.0,61,0.00,,---,0.00,VWS V13.01,2013-03-14 00:29:00,
2013-03-13 20:34:00,60.0,46.5,30.11,NW,316,0.0,6.0,61,0.00,,---,0.00,VWS V13.01,2013-03-14 00:34:00,
2013-03-13 20:39:00,60.2,46.3,30.12,NNE,30,5.0,10.0,60,0.00,,---,0.00,VWS V13.01,2013-03-14 00:39:00,
2013-03-13 20:44:00,60.3,46.4,30.12,NW,323,0.0,10.0,60,0.00,,---,0.00,VWS V13.01,2013-03-14 00:44:00,
2013-03-13 20:49:00,60.2,46.3,30.12,NW,325,3.0,10.0,60,0.00,,---,0.00,VWS V13.01,2013-03-14 00:49:00,
2013-03-13 20:54:00,60.4,46.5,30.12,WNW,285,1.0,10.0,60,0.00,,---,0.00,VWS V13.01,2013-03-14 00:54:00,
2013-03-13 20:59:00,60.3,46.4,30.12,WNW,296,1.0,10.0,60,0.00,,---,0.00,VWS V13.01,2013-03-14 00:59:00,
2013-03-13 21:04:00,60.3,46.8,30.12,WNW,292,4.0,6.0,61,0.00,,---,0.00,VWS V13.01,2013-03-14 01:04:00,
2013-03-13 21:09:00,60.1,46.6,30.12,NNW,329,0.0,6.0,61,0.00,,---,0.00,VWS V13.01,2013-03-14 01:09:00,
2013-03-13 21:14:00,60.0,47.0,30.12,North,355,7.0,7.0,62,0.00,,---,0.00,VWS V13.01,2013-03-14 01:14:00,
2013-03-13 21:19:00,59.9,47.3,30.13,WSW,241,0.0,10.0,63,0.00,,---,0.00,VWS V13.01,2013-03-14 01:19:00,
2013-03-13 21:24:00,60.0,47.0,30.13,NNW,329,3.0,10.0,62,0.00,,---,0.00,VWS V13.01,2013-03-14 01:24:00,
2013-03-13 21:30:00,60.0,47.0,30.13,NNW,327,0.0,2.0,62,0.00,,---,0.00,VWS V13.01,2013-03-14 01:30:00,
2013-03-13 21:35:00,60.0,47.4,30.13,NW,315,2.0,5.0,63,0.00,,---,0.00,VWS V13.01,2013-03-14 01:35:00,
2013-03-13 21:40:00,59.8,47.2,30.14,NNW,345,3.0,7.0,63,0.00,,---,0.00,VWS V13.01,2013-03-14 01:40:00,
2013-03-13 21:45:00,59.7,47.5,30.14,NW,315,0.0,7.0,64,0.00,,---,0.00,VWS V13.01,2013-03-14 01:45:00,
2013-03-13 21:50:00,59.7,47.5,30.14,NNW,333,2.0,9.0,64,0.00,,---,0.00,VWS V13.01,2013-03-14 01:50:00,
2013-03-13 21:55:00,59.8,47.6,30.14,WNW,296,6.0,9.0,64,0.00,,---,0.00,VWS V13.01,2013-03-14 01:55:00,
2013-03-13 22:00:00,59.8,47.6,30.14,NW,318,2.0,2.0,64,0.00,,---,0.00,VWS V13.01,2013-03-14 02:00:00,
2013-03-13 22:05:00,59.8,48.0,30.15,NW,321,1.0,11.0,65,0.00,,---,0.00,VWS V13.01,2013-03-14 02:05:00,
2013-03-13 22:10:00,59.8,48.4,30.15,NW,319,0.0,11.0,66,0.00,,---,0.00,VWS V13.01,2013-03-14 02:10:00,
2013-03-13 22:15:00,59.9,48.5,30.15,NW,320,4.0,11.0,66,0.00,,---,0.00,VWS V13.01,2013-03-14 02:15:00,
2013-03-13 22:20:00,59.8,48.4,30.15,NNW,334,4.0,11.0,66,0.00,,---,0.00,VWS V13.01,2013-03-14 02:20:00,
2013-03-13 22:25:00,59.7,48.7,30.15,WNW,300,0.0,11.0,67,0.00,,---,0.00,VWS V13.01,2013-03-14 02:25:00,
2013-03-13 22:30:00,59.7,48.7,30.15,WSW,252,2.0,9.0,67,0.00,,---,0.00,VWS V13.01,2013-03-14 02:30:00,
2013-03-13 22:35:00,59.8,48.8,30.16,NNW,338,5.0,9.0,67,0.00,,---,0.00,VWS V13.01,2013-03-14 02:35:00,
2013-03-13 22:40:00,59.9,48.9,30.16,WNW,290,2.0,9.0,67,0.00,,---,0.00,VWS V13.01,2013-03-14 02:40:00,
2013-03-13 22:45:00,59.9,48.9,30.16,WNW,301,4.0,9.0,67,0.00,,---,0.00,VWS V13.01,2013-03-14 02:45:00,
2013-03-13 22:51:00,59.8,48.8,30.16,NNW,342,0.0,9.0,67,0.00,,---,0.00,VWS V13.01,2013-03-14 02:51:00,
2013-03-13 22:56:00,59.8,49.2,30.16,NW,311,0.0,9.0,68,0.00,,---,0.00,VWS V13.01,2013-03-14 02:56:00,
2013-03-13 23:01:00,59.9,49.3,30.16,NNE,15,7.0,7.0,68,0.00,,---,0.00,VWS V13.01,2013-03-14 03:01:00,
2013-03-13 23:06:00,59.9,49.3,30.16,North,360,0.0,7.0,68,0.00,,---,0.00,VWS V13.01,2013-03-14 03:06:00,
2013-03-13 23:11:00,59.8,49.2,30.16,NW,311,1.0,7.0,68,0.00,,---,0.00,VWS V13.01,2013-03-14 03:11:00,
2013-03-13 23:16:00,59.8,49.2,30.16,NW,325,0.0,7.0,68,0.00,,---,0.00,VWS V13.01,2013-03-14 03:16:00,
2013-03-13 23:22:00,59.8,49.6,30.16,NW,323,0.0,7.0,69,0.00,,---,0.00,VWS V13.01,2013-03-14 03:22:00,
2013-03-13 23:27:00,59.6,49.8,30.16,NW,311,3.0,7.0,70,0.00,,---,0.00,VWS V13.01,2013-03-14 03:27:00,
2013-03-13 23:32:00,59.6,50.2,30.16,NW,315,0.0,0.0,71,0.00,,---,0.00,VWS V13.01,2013-03-14 03:32:00,
2013-03-13 23:37:00,59.7,50.7,30.16,NNW,344,3.0,9.0,72,0.00,,---,0.00,VWS V13.01,2013-03-14 03:37:00,
2013-03-13 23:42:00,59.7,50.7,30.16,North,9,7.0,9.0,72,0.00,,---,0.00,VWS V13.01,2013-03-14 03:42:00,
2013-03-13 23:47:00,59.7,50.7,30.16,NW,315,3.0,9.0,72,0.00,,---,0.00,VWS V13.01,2013-03-14 03:47:00,
2013-03-13 23:52:00,59.7,51.0,30.16,NW,325,0.0,9.0,73,0.00,,---,0.00,VWS V13.01,2013-03-14 03:52:00,
2013-03-13 23:57:00,59.7,51.0,30.16,NNW,328,0.0,9.0,73,0.00,,---,0.00,VWS V13.01,2013-03-14 03:57:00,